Wind_Speed
63 62 61 60 59 58 57 56 55 55 55 55 54 53 53 54 55 55 55 53 51 50 48 47 45 42 40 40 41 40 39 37 34 32 30 30 29 28 27 26 24 23 23
69 67 66 65 64 63 62 61 60 59 58 58 56 55 54 55 56 56 57 56 55 53 51 49 47 44 42 41 43 43 42 40 37 34 32 30 29 28 27 26 25 24 23
77 74 71 70 69 68 67 66 65 64 63 62 60 58 57 57 58 58 58 58 57 56 54 52 50 47 45 43 43 44 44 43 41 38 35 33 31 30 28 27 26 25 24
82 80 78 75 73 72 71 70 69 68 67 66 65 62 60 59 58 59 59 59 59 58 56 55 53 51 48 46 45 45 43 44 45 42 39 37 34 32 31 30 28 27 25
84 84 83 81 78 76 75 74 73 72 70 70 69 67 64 62 61 60 60 60 60 59 59 57 56 54 52 50 48 47 44 44 45 45 43 40 38 36 35 33 32 30 28
80 85 86 84 82 81 79 77 76 75 73 72 71 70 68 66 64 63 61 61 61 60 60 59 59 58 55 53 52 50 48 45 45 45 45 44 42 40 39 37 35 34 32
65 76 85 87 86 84 83 81 80 78 76 75 73 72 71 69 67 66 65 63 62 62 61 61 61 60 58 56 55 54 52 49 46 44 45 45 45 43 42 41 39 37 36
51 59 72 84 89 88 86 85 83 81 79 77 76 74 72 71 69 68 68 67 65 64 63 63 63 63 62 60 58 57 55 53 50 47 46 45 46 46 45 43 42 41 39
45 47 55 70 83 90 90 89 87 85 83 80 79 77 75 73 72 71 70 69 68 67 66 65 65 65 65 64 62 61 59 57 55 52 50 49 47 47 46 45 44 42 41
43 43 43 51 66 82 90 91 90 89 87 84 82 81 79 77 75 74 72 71 71 69 68 67 67 67 67 66 65 64 62 61 59 57 55 53 51 49 48 46 45 43 42
41 40 39 40 47 61 77 87 91 91 90 88 85 84 83 81 78 77 75 74 73 71 70 70 69 69 69 68 67 65 64 63 62 60 58 56 54 52 50 48 46 44 42
40 38 36 35 36 42 54 69 81 88 90 90 89 87 86 84 82 80 78 76 75 73 72 71 71 71 70 70 69 68 66 65 63 62 59 58 56 55 53 51 49 46 44
40 37 35 34 32 33 37 47 60 72 82 87 89 88 87 87 86 84 82 80 78 76 74 72 72 73 73 71 70 69 68 67 65 63 61 60 59 57 56 54 53 51 49
42 37 34 33 32 31 31 34 42 52 63 73 81 85 86 87 87 87 86 84 82 80 77 74 73 72 73 73 73 72 70 69 66 65 63 62 60 60 59 58 56 54 52
45 40 36 33 32 31 31 30 32 38 45 54 64 73 79 83 86 87 88 87 86 84 82 78 75 74 73 73 74 74 74 72 70 67 65 63 62 62 61 61 60 58 56
44 43 40 36 33 32 31 31 31 32 35 40 46 55 64 71 78 83 87 88 88 87 86 83 80 77 75 74 73 73 74 74 73 71 69 67 66 64 64 63 62 62 60
41 42 42 40 37 34 33 33 33 33 34 35 37 42 48 55 64 73 80 85 87 88 88 86 86 82 79 77 75 74 73 73 73 73 72 70 69 68 67 66 65 64 62
39 39 41 42 41 39 37 35 35 35 35 36 36 37 39 43 49 57 66 74 80 83 86 86 87 86 84 81 79 77 76 74 73 72 72 71 71 70 69 68 67 66 65
37 36 38 41 43 43 41 39 38 38 38 37 37 37 38 40 42 48 54 62 68 73 77 80 83 85 84 83 81 80 79 77 76 74 73 71 71 72 72 71 69 68 68
34 33 34 37 42 45 45 43 41 40 40 40 39 38 38 39 40 43 47 53 58 63 67 71 75 77 79 80 80 80 81 80 78 77 76 73 72 71 71 71 71 72 72
33 30 30 33 38 44 46 46 44 42 41 41 40 39 38 37 36 37 40 45 49 53 57 61 64 68 71 72 74 75 77 78 79 78 77 75 74 72 71 71 71 72 72
33 29 27 29 34 40 45 47 45 43 42 41 40 38 36 35 33 33 34 39 44 49 53 56 60 63 66 67 69 69 70 73 75 76 76 76 76 76 75 73 72 71 72
34 29 27 26 29 35 40 45 45 43 43 42 41 39 37 35 33 33 35 40 44 47 53 56 58 60 63 65 65 65 66 67 69 71 73 74 75 75 75 76 76 76 77
37 30 26 25 26 30 36 41 44 43 44 44 42 41 39 37 37 38 39 43 45 47 51 54 56 56 58 60 62 63 63 61 63 66 70 71 73 73 74 75 76 78 79
38 30 25 23 23 27 32 38 42 43 44 45 45 45 43 42 41 42 42 44 46 46 48 50 51 51 52 53 55 56 56 56 56 58 61 64 67 69 71 73 74 75 77
37 29 23 21 22 24 29 34 39 42 44 46 47 48 47 47 47 46 45 44 44 44 45 46 48 48 47 47 48 50 50 51 51 53 55 57 59 62 64 67 69 70 72
Wind_Direction
266 264 262 259 257 254 251 249 248 247 247 245 244 243 241 240 238 236 234 234 234 234 235 237 238 237 234 232 233 233 226 222 221 220 219 218 219 219 218 218 217 217 218
264 261 259 257 256 254 252 249 247 246 246 246 245 243 241 239 237 236 234 233 234 234 234 235 236 235 234 231 232 233 228 220 218 218 217 216 216 216 216 216 217 218 219
264 261 257 255 253 252 251 249 247 245 244 245 245 245 243 241 238 235 234 233 233 233 233 234 235 234 233 231 231 234 231 221 217 217 216 216 216 216 216 217 217 219 221
263 260 258 255 252 250 249 248 247 246 244 243 243 243 243 243 240 237 234 232 232 232 232 233 234 234 233 231 231 233 233 223 217 216 216 217 218 218 219 220 221 222 224
262 259 256 254 252 250 248 247 246 245 244 244 243 242 241 241 240 239 236 233 232 231 232 232 233 234 234 232 231 232 234 229 220 216 217 219 220 222 223 225 227 229 230
261 257 254 252 250 249 247 246 245 244 243 243 242 241 241 240 239 239 237 235 233 231 231 232 232 233 233 232 231 231 233 234 228 221 219 221 223 225 227 229 231 234 236
267 257 252 249 247 246 245 245 244 242 242 241 241 241 240 240 239 238 238 237 235 232 231 231 232 232 232 233 232 232 232 234 235 231 226 225 226 228 230 232 235 237 239
279 266 255 248 245 243 243 242 242 241 240 240 239 239 239 239 239 238 238 237 236 234 231 231 231 232 232 233 233 232 233 234 235 236 235 233 231 231 233 235 237 239 241
294 283 266 253 245 242 240 240 240 239 238 238 238 237 237 236 237 237 237 237 237 236 233 231 231 232 233 233 234 234 234 235 236 236 237 237 236 235 235 236 238 239 240
297 294 284 267 251 243 240 238 237 237 237 236 237 237 237 236 235 235 236 236 236 236 235 233 232 232 233 233 234 235 236 236 237 237 237 237 237 237 237 237 237 238 238
297 296 292 282 266 251 242 238 237 236 236 235 235 236 237 236 235 235 234 235 236 236 235 234 234 233 233 234 234 235 236 237 237 236 236 236 236 236 236 237 237 237 238
295 294 293 288 278 264 250 242 238 236 235 235 235 235 236 237 237 236 236 234 234 235 236 235 234 234 234 235 235 235 236 237 237 236 236 235 235 235 236 237 238 238 239
289 289 287 286 281 272 259 249 242 239 237 235 235 236 236 237 238 238 237 236 235 234 235 235 235 235 235 235 236 236 237 237 237 237 237 236 236 236 237 238 239 240 240
281 281 280 278 276 272 264 252 244 241 239 238 237 237 237 238 239 240 240 239 238 236 235 234 236 236 235 236 236 237 237 237 237 237 238 237 237 237 238 239 240 241 242
275 273 272 270 269 267 262 255 245 239 237 237 238 239 239 239 240 241 241 241 241 240 238 236 236 236 236 236 236 237 237 237 237 237 237 238 238 239 239 240 241 242 242
276 269 266 263 261 259 256 253 246 238 233 233 234 237 239 240 241 242 242 243 243 243 241 240 238 237 237 237 236 237 237 237 237 237 237 237 238 239 240 241 241 242 242
283 270 262 258 255 253 250 248 244 240 236 233 233 235 237 239 240 241 242 243 243 243 243 242 241 239 239 238 237 237 237 237 237 237 237 237 237 238 239 241 241 242 242
291 277 264 256 251 248 245 243 242 240 238 237 237 238 239 240 241 240 240 241 241 241 242 242 242 241 240 240 239 238 237 237 237 236 236 235 235 236 237 239 240 241 242
295 283 269 258 250 246 242 240 239 239 239 239 240 242 243 245 245 243 240 239 238 237 237 238 239 239 240 239 239 239 238 237 237 236 236 235 235 236 236 237 238 239 241
301 289 275 261 252 246 241 238 237 237 238 239 241 243 246 248 248 246 241 237 234 231 230 232 234 235 235 235 236 236 237 237 237 236 236 236 236 236 237 237 237 239 240
309 295 281 266 255 248 242 238 235 235 236 237 239 241 245 247 248 246 240 233 227 223 222 223 225 226 228 229 230 231 233 235 235 235 235 235 236 237 236 237 237 238 239
315 304 288 271 258 250 243 238 234 233 234 234 235 237 239 242 243 237 229 222 216 213 213 216 219 222 222 224 225 226 228 231 232 234 234 234 234 234 234 234 234 235 236
320 309 295 278 261 252 245 239 233 230 230 230 230 231 232 234 230 221 215 210 209 210 210 210 214 218 220 221 222 223 225 227 229 231 232 232 233 234 234 234 234 234 234
322 310 298 283 266 253 246 239 232 227 226 226 226 225 224 224 221 215 211 205 202 203 204 208 211 213 215 218 221 223 223 225 227 228 229 230 231 233 233 234 235 235 237
322 310 298 284 269 254 246 240 232 225 222 222 222 221 219 218 217 214 212 208 204 204 205 208 210 211 213 216 218 219 221 222 224 226 228 230 231 233 234 235 236 237 238
321 308 295 282 268 255 247 241 233 225 221 220 220 220 218 218 216 215 215 214 212 210 209 210 212 214 215 216 216 216 218 221 223 226 229 231 232 233 235 235 236 237 239
Height
5725 5724 5724 5726 5727 5729 5731 5733 5734 5736 5738 5740 5743 5746 5750 5754 5758 5763 5768 5772 5776 5780 5783 5786 5789 5793 5797 5801 5803 5805 5807 5812 5816 5820 5823 5826 5830 5833 5836 5840 5843 5846 5849
5705 5705 5706 5707 5709 5711 5714 5716 5719 5721 5724 5726 5729 5732 5735 5739 5744 5749 5754 5759 5764 5769 5773 5776 5779 5784 5788 5792 5794 5797 5799 5804 5809 5813 5817 5821 5824 5828 5831 5835 5838 5841 5845
5682 5683 5684 5686 5688 5691 5695 5698 5701 5705 5708 5712 5715 5719 5722 5726 5730 5735 5740 5746 5751 5757 5762 5766 5769 5774 5778 5782 5786 5788 5791 5796 5801 5806 5810 5815 5818 5822 5826 5830 5833 5837 5840
5656 5658 5660 5663 5666 5670 5673 5678 5682 5686 5691 5695 5699 5704 5708 5713 5717 5721 5726 5732 5737 5743 5749 5754 5759 5763 5768 5773 5776 5779 5783 5787 5792 5798 5803 5808 5812 5816 5820 5824 5828 5832 5835
5627 5630 5634 5638 5642 5647 5651 5656 5661 5667 5672 5677 5682 5687 5692 5698 5703 5708 5713 5718 5724 5730 5736 5742 5747 5752 5758 5763 5767 5771 5774 5778 5783 5788 5794 5800 5805 5809 5813 5818 5822 5826 5829
5597 5600 5605 5610 5616 5622 5628 5633 5639 5645 5652 5658 5663 5669 5675 5681 5687 5693 5699 5704 5710 5716 5723 5729 5735 5740 5746 5752 5758 5762 5766 5769 5774 5779 5785 5791 5796 5801 5806 5810 5815 5819 5823
5567 5570 5575 5581 5588 5595 5602 5609 5615 5623 5630 5637 5644 5651 5658 5664 5671 5678 5684 5690 5696 5703 5709 5716 5722 5728 5734 5740 5747 5752 5757 5761 5766 5770 5776 5782 5787 5792 5798 5802 5807 5811 5815
5545 5543 5544 5550 5558 5567 5575 5583 5591 5599 5608 5615 5623 5631 5640 5648 5655 5662 5668 5675 5682 5687 5694 5702 5709 5715 5722 5728 5735 5742 5747 5752 5757 5762 5767 5772 5778 5783 5788 5793 5798 5803 5807
5528 5524 5521 5522 5528 5536 5547 5556 5565 5575 5585 5594 5601 5610 5620 5630 5636 5644 5652 5659 5666 5673 5680 5687 5694 5701 5709 5715 5722 5729 5736 5742 5748 5753 5758 5764 5768 5773 5779 5784 5789 5793 5798
5515 5509 5504 5501 5502 5508 5517 5528 5539 5550 5561 5572 5579 5588 5598 5608 5617 5627 5634 5642 5649 5657 5664 5672 5679 5687 5694 5702 5709 5716 5724 5730 5737 5743 5748 5753 5758 5763 5768 5774 5779 5784 5788
5503 5496 5491 5486 5483 5484 5491 5501 5512 5524 5536 5548 5558 5567 5576 5586 5597 5606 5616 5625 5632 5640 5648 5655 5663 5671 5679 5687 5695 5703 5711 5717 5724 5731 5737 5742 5748 5753 5758 5763 5768 5773 5778
5492 5485 5479 5475 5471 5469 5471 5478 5487 5498 5511 5523 5535 5545 5555 5565 5576 5586 5596 5606 5615 5623 5630 5639 5647 5656 5664 5672 5681 5689 5696 5704 5711 5718 5725 5731 5737 5742 5747 5752 5758 5763 5768
5480 5475 5469 5465 5461 5459 5459 5462 5468 5477 5487 5500 5512 5523 5533 5544 5554 5564 5575 5585 5595 5605 5613 5622 5631 5640 5649 5657 5666 5674 5682 5690 5698 5705 5712 5719 5725 5731 5737 5742 5747 5752 5758
5465 5462 5459 5455 5452 5450 5450 5451 5454 5460 5469 5479 5490 5501 5512 5523 5533 5543 5554 5564 5574 5585 5595 5606 5614 5624 5633 5641 5650 5658 5667 5675 5683 5691 5699 5706 5713 5720 5725 5730 5736 5741 5746
5448 5447 5446 5445 5443 5441 5441 5442 5444 5449 5454 5462 5471 5481 5491 5502 5512 5522 5532 5542 5553 5564 5577 5589 5598 5607 5616 5625 5634 5642 5651 5660 5668 5677 5685 5692 5700 5706 5712 5718 5723 5728 5734
5430 5430 5431 5432 5432 5432 5432 5433 5436 5439 5444 5450 5456 5464 5473 5481 5490 5500 5511 5521 5531 5543 5556 5568 5579 5590 5599 5608 5617 5625 5635 5644 5652 5661 5670 5678 5686 5692 5698 5703 5709 5715 5720
5413 5413 5414 5417 5419 5420 5422 5424 5427 5430 5435 5439 5445 5451 5458 5464 5472 5481 5490 5500 5511 5522 5535 5547 5558 5572 5580 5590 5600 5609 5618 5626 5635 5645 5654 5662 5670 5677 5683 5689 5694 5700 5706
5398 5396 5397 5400 5403 5406 5409 5412 5416 5420 5425 5429 5434 5439 5445 5450 5456 5462 5470 5479 5490 5501 5514 5526 5538 5551 5562 5573 5582 5592 5600 5609 5619 5628 5637 5646 5653 5661 5667 5673 5679 5685 5692
5385 5381 5381 5383 5386 5390 5395 5400 5404 5409 5413 5418 5423 5428 5432 5437 5442 5447 5453 5460 5470 5481 5493 5505 5517 5530 5542 5553 5563 5572 5581 5591 5601 5611 5620 5629 5637 5645 5652 5659 5665 5671 5678
5373 5369 5367 5367 5370 5374 5380 5387 5392 5397 5402 5407 5411 5416 5420 5424 5428 5432 5437 5444 5453 5464 5475 5486 5498 5510 5521 5533 5543 5552 5562 5572 5583 5594 5603 5612 5621 5629 5637 5645 5653 5658 5663
5362 5357 5354 5354 5355 5358 5364 5371 5378 5384 5389 5395 5400 5404 5408 5412 5415 5419 5423 5430 5439 5449 5460 5471 5481 5493 5503 5513 5524 5534 5544 5553 5564 5575 5586 5597 5608 5616 5620 5627 5634 5641 5647
5352 5347 5343 5341 5342 5343 5348 5355 5363 5370 5376 5382 5388 5393 5397 5401 5404 5408 5413 5420 5428 5438 5448 5458 5467 5477 5487 5498 5509 5518 5527 5537 5549 5562 5571 5578 5587 5595 5603 5611 5618 5625 5631
5342 5337 5332 5330 5330 5331 5334 5339 5348 5356 5363 5369 5375 5381 5386 5391 5395 5400 5405 5412 5420 5428 5438 5446 5454 5462 5472 5484 5495 5506 5513 5519 5532 5543 5551 5559 5568 5577 5586 5593 5601 5608 5615
5332 5326 5322 5319 5318 5319 5321 5325 5333 5342 5350 5356 5363 5369 5375 5381 5386 5392 5398 5404 5411 5418 5426 5434 5443 5451 5460 5469 5480 5490 5499 5508 5517 5525 5533 5542 5551 5560 5568 5576 5584 5591 5598
5320 5314 5311 5308 5307 5307 5308 5311 5319 5329 5337 5344 5350 5357 5364 5371 5376 5383 5389 5396 5402 5408 5415 5423 5432 5441 5451 5460 5469 5478 5487 5495 5503 5511 5519 5528 5536 5544 5552 5559 5567 5575 5582
5306 5301 5299 5297 5296 5296 5297 5299 5305 5315 5324 5331 5337 5345 5353 5360 5366 5373 5380 5387 5394 5400 5407 5415 5424 5433 5441 5450 5458 5467 5476 5485 5492 5500 5507 5516 5523 5530 5537 5544 5552 5559 5566